This is the latest recevied weather packets stored in our database for station/object YO8SDE-8. If no packets are shown the sender has not sent any weather packets the latest 10 day(s).
| Time | Temp. | Humidity | Pressure | Rain* | Wind** | Luminosity | Snow |
|---|---|---|---|---|---|---|---|
| 1777614666 | 7.78° C | 51% | 1015.2 hPa | 0 mm | - | - | - |
| 1777614366 | 7.78° C | 53% | 1015.1 hPa | 0 mm | - | - | - |
| 1777614066 | 7.22° C | 52% | 1015.4 hPa | 0 mm | - | - | - |
| 1777613766 | 7.22° C | 53% | 1015.2 hPa | 0 mm | - | - | - |
| 1777613466 | 6.67° C | 55% | 1015.3 hPa | 0 mm | - | - | - |
| 1777613166 | 6.67° C | 55% | 1015.2 hPa | 0 mm | - | - | - |
| 1777612866 | 6.11° C | 55% | 1015.3 hPa | 0 mm | - | - | - |
| 1777612566 | 6.11° C | 56% | 1015.2 hPa | 0 mm | - | - | - |
| 1777612266 | 5.56° C | 59% | 1015.1 hPa | 0 mm | - | - | - |
| 1777611966 | 5° C | 59% | 1015.1 hPa | 0 mm | - | - | - |
| 1777611666 | 5° C | 62% | 1015.1 hPa | 0 mm | - | - | - |
| 1777611366 | 5° C | 63% | 1015.2 hPa | 0 mm | - | - | - |
| 1777611066 | 5° C | 64% | 1015.1 hPa | 0 mm | - | - | - |
| 1777610766 | 4.44° C | 65% | 1015.2 hPa | 0 mm | - | - | - |
| 1777610466 | 4.44° C | 68% | 1015.2 hPa | 0 mm | - | - | - |
| 1777610166 | 3.89° C | 71% | 1015.1 hPa | 0 mm | - | - | - |
| 1777609866 | 3.33° C | 73% | 1015 hPa | 0 mm | - | - | - |
| 1777609566 | 3.33° C | 73% | 1015.1 hPa | 0 mm | - | - | - |
| 1777609266 | 2.78° C | 73% | 1015.1 hPa | 0 mm | - | - | - |
| 1777608966 | 2.78° C | 73% | 1015 hPa | 0 mm | - | - | - |
| 1777608666 | 2.22° C | 73% | 1015.1 hPa | 0 mm | - | - | - |
| 1777608366 | 1.67° C | 74% | 1015 hPa | 0 mm | - | - | - |
| 1777608066 | 1.67° C | 74% | 1014.9 hPa | 0 mm | - | - | - |
| 1777607766 | 1.11° C | 74% | 1014.9 hPa | 0 mm | - | - | - |
| 1777607466 | 1.11° C | 74% | 1014.8 hPa | 0 mm | - | - | - |
* Rain latest hour (hover to see other rain measurements)
** Current wind speed in m/s (hover to see current wind gust speed)